Weather in Tambovka

Russia / Amur Oblast     50°05′56″N   128°03′39″E
temp.,
°C
wind,
m/s
gust,
m/s
humid.,
%
clouds,
%
prec.,
mm/h
press.,
hPa
HPBL,
m
5 december, sun
sun500:00−14ssw612865 0.0 1016267
03:00−13ssw612895 0.0 1015264
06:00−13s611915 0.0 1014218
09:00−12s611917 0.0 1014224
12:00−9s61189100 0.0 1013359
15:00−8s61188100 0.0 1011356
18:00−9ssw51190100 0.0 1012230
21:00−13sw229721 0.0 101324
6 december, mon
mon600:00−17nw229970 0.0 101414
03:00−19nw22999 0.0 101632
06:00−20w229977 0.0 101810
09:00−19sw339943 0.0 102038
12:00−10wsw26865 0.0 1021132
15:00−8wsw36845 0.0 102296
18:00−13wsw36865 0.0 102462
21:00−13sw379265 0.0 102485
7 december, tue
tue700:00−11s4889100 0.0 1023115
03:00−11ssw368998 0.0 102383
06:00−13ssw349090 0.0 102341
09:00−15ssw22935 0.0 102529
12:00−9ssw24895 0.0 1025109
15:00−9sse22945 0.0 102517
18:00−12s35945 0.0 102647
21:00−13ssw35955 0.0 102754
8 december, wed
wed800:00−12s35925 0.0 102757
03:00−11s48905 0.0 102794
06:00−11s48915 0.0 102797
09:00−10s510895 0.0 1027143
12:00−6s614855 0.0 1025322
15:00−4s613835 0.0 1023393
18:00−7s5128724 0.0 1023205
21:00−9s51290100 0.0 1022207
9 december, thu
thu900:00−7sse51289100 0.0 1020232
03:00−6sse4991100 0.0 1018172
06:00−5sse41089100 0.0 1016221
09:00−3s61289100 0.1 1015501
12:00−1ssw61288100 0.2 1015666
15:00−1ssw51092100 0.3 1015607
18:00−1wsw3798100 1.9 1017379
21:00−7nnw6128772 2.6 1021397